Location: Ashtead
(51.3000°N, 0.3000°W)
Time: 10:59:17
(UTC+00:00)

SL-16 R/B - Pass Details

Date: 26 September 2023
Orbit: 842 x 845 km, 71.0° (Epoch: 28 November)

Event Time Altitude Azimuth Distance (km) Brightness Sun altitude
Rises 05:01:38 0° 314° (NW) 3,414 5.0 -8.8°
Reaches altitude 10° 05:06:15 10° 280° (W) 2,472 4.0 -8.1°
Maximum altitude 05:07:37 11° 266° (W) 2,406 3.9 -7.9°
Drops below altitude 10° 05:09:00 10° 252° (WSW) 2,468 4.0 -7.7°
Sets 05:13:36 0° 217° (SW) 3,395 4.9 -7.0°
